Back to Top

Language: 

My Weather Underground Personal Weather Station Historical Data with Graphs...

Delerius Weather Station Historical Data
Daily Summary for July 26, 2017 Units:  Metric    English   Both
« Previous Day
Next Day »
Daily Weekly Monthly Yearly Custom
  High: Low: Average:
Temperature: 21.9 °C 12.1 °C 16.1 °C
Dew Point: 18.6 °C 10.2 °C 13.6 °C
Humidity: 96 % 63 % 86 %
Wind Speed: 29 km/h 0 km/h 9.8 km/h
Wind Gust: 49.9 km/h - -
Wind:- - SSW
Pressure: 1011.4 hPa 998.9 hPa -
Precipitation: 2.79 mm    
Historical Graphs
 
 
Tabular Data for July 26, 2017
Time Temperature Dew Point Pressure Wind Wind Speed Wind Gust Humidity Rainfall Rate (Hourly) solar Conditions
00:04 14.8 °C 13 °C 1011.4 hPa SE 6.4 km/h 12.9 km/h 89 % 0 mm 0 W/m2
00:09 14.8 °C 13 °C 1011.4 hPa SE 3.2 km/h 12.9 km/h 89 % 0 mm 0 W/m2
00:14 14.7 °C 13.1 °C 1011.1 hPa SE 4.8 km/h 12.9 km/h 90 % 0 mm 0 W/m2
00:19 14.7 °C 13.1 °C 1011.1 hPa SE 8 km/h 12.9 km/h 90 % 0 mm 0 W/m2
00:24 14.6 °C 13 °C 1011.1 hPa SE 6.4 km/h 12.9 km/h 90 % 0 mm 0 W/m2
00:29 14.5 °C 12.9 °C 1011.1 hPa SE 6.4 km/h 11.3 km/h 90 % 0 mm 0 W/m2
00:34 14.5 °C 13.1 °C 1010.7 hPa SE 6.4 km/h 11.3 km/h 91 % 0 mm 0 W/m2
00:39 14.4 °C 12.9 °C 1010.7 hPa ESE 4.8 km/h 9.7 km/h 91 % 0 mm 0 W/m2
00:44 14.4 °C 12.9 °C 1010.7 hPa ESE 4.8 km/h 9.7 km/h 91 % 0 mm 0 W/m2
00:49 14.3 °C 12.7 °C 1010.7 hPa ESE 3.2 km/h 11.3 km/h 90 % 0 mm 0 W/m2
00:54 14.3 °C 12.7 °C 1010.4 hPa ESE 3.2 km/h 11.3 km/h 90 % 0 mm 0 W/m2
00:59 14.3 °C 12.7 °C 1010.4 hPa SE 4.8 km/h 14.5 km/h 90 % 0 mm 0 W/m2
01:04 14.2 °C 12.6 °C 1010.4 hPa ESE 4.8 km/h 14.5 km/h 90 % 0 mm 0 W/m2
01:05 14.2 °C 12.6 °C 1010.4 hPa ESE 4.8 km/h 11.3 km/h 90 % 0 mm 0 W/m2
01:10 14.2 °C 12.6 °C 1010.4 hPa ESE 6.4 km/h 12.9 km/h 90 % 0 mm 0 W/m2
01:15 14.1 °C 12.7 °C 1010 hPa ESE 4.8 km/h 12.9 km/h 91 % 0 mm 0 W/m2
01:20 14.1 °C 12.7 °C 1010 hPa ESE 3.2 km/h 12.9 km/h 91 % 0 mm 0 W/m2
01:25 14.1 °C 12.7 °C 1010 hPa SE 3.2 km/h 12.9 km/h 91 % 0 mm 0 W/m2
01:30 14 °C 12.4 °C 1010 hPa SSE 1.6 km/h 12.9 km/h 90 % 0 mm 0 W/m2
01:35 13.9 °C 12.3 °C 1010 hPa SSE 1.6 km/h 12.9 km/h 90 % 0 mm 0 W/m2
01:36 13.9 °C 12.3 °C 1010 hPa SSE 1.6 km/h 12.9 km/h 90 % 0 mm 0 W/m2
01:41 13.8 °C 12.3 °C 1010 hPa SE 1.6 km/h 9.7 km/h 91 % 0 mm 0 W/m2
01:46 13.8 °C 12.3 °C 1010 hPa SSE 1.6 km/h 9.7 km/h 91 % 0 mm 0 W/m2
01:51 13.7 °C 12.3 °C 1009.7 hPa SE 1.6 km/h 6.4 km/h 91 % 0 mm 0 W/m2
01:56 13.7 °C 12.3 °C 1009.7 hPa Calm   4.8 km/h 91 % 0 mm 0 W/m2
02:01 13.6 °C 12.2 °C 1009.7 hPa SE 1.6 km/h 6.4 km/h 91 % 0 mm 0 W/m2
02:06 13.6 °C 12.3 °C 1009.7 hPa SE 1.6 km/h 8 km/h 92 % 0 mm 0 W/m2
02:11 13.5 °C 12.2 °C 1009.4 hPa SE 1.6 km/h 8 km/h 92 % 0 mm 0 W/m2
02:16 13.5 °C 12.2 °C 1009.4 hPa SE 1.6 km/h 6.4 km/h 92 % 0 mm 0 W/m2
02:21 13.4 °C 12.1 °C 1009.4 hPa SE 1.6 km/h 6.4 km/h 92 % 0 mm 0 W/m2
02:26 13.4 °C 12.1 °C 1009 hPa SE 1.6 km/h 6.4 km/h 92 % 0 mm 0 W/m2
02:31 13.4 °C 12.1 °C 1009 hPa SE 1.6 km/h 9.7 km/h 92 % 0 mm 0 W/m2
02:36 13.3 °C 12 °C 1009 hPa SE 3.2 km/h 9.7 km/h 92 % 0 mm 0 W/m2
02:41 13.3 °C 12.2 °C 1009 hPa SE 1.6 km/h 8 km/h 93 % 0 mm 0 W/m2
02:46 13.3 °C 12.2 °C 1009 hPa SE 3.2 km/h 8 km/h 93 % 0 mm 0 W/m2
02:51 13.2 °C 12.1 °C 1008.7 hPa SE 3.2 km/h 8 km/h 93 % 0 mm 0 W/m2
02:56 13.2 °C 12.1 °C 1008.7 hPa SE 1.6 km/h 8 km/h 93 % 0 mm 0 W/m2
03:01 13.2 °C 12.1 °C 1008.7 hPa SE 1.6 km/h 6.4 km/h 93 % 0 mm 0 W/m2
03:06 13.1 °C 12 °C 1008.7 hPa Calm   1.6 km/h 93 % 0 mm 0 W/m2
03:11 13.1 °C 12 °C 1008.4 hPa Calm   1.6 km/h 93 % 0 mm 0 W/m2
03:16 13 °C 11.9 °C 1008.4 hPa Calm   3.2 km/h 93 % 0 mm 0 W/m2
03:21 13 °C 11.9 °C 1008.4 hPa Calm   3.2 km/h 93 % 0 mm 0 W/m2
03:26 12.9 °C 11.8 °C 1008.4 hPa Calm     93 % 0 mm 0 W/m2
03:31 12.8 °C 11.7 °C 1008.4 hPa Calm     93 % 0 mm 0 W/m2
03:36 12.8 °C 11.7 °C 1008.4 hPa Calm     93 % 0 mm 0 W/m2
03:41 12.7 °C 11.6 °C 1008 hPa Calm     93 % 0 mm 0 W/m2
03:46 12.7 °C 11.8 °C 1008 hPa Calm   3.2 km/h 94 % 0 mm 0 W/m2
03:51 12.7 °C 11.8 °C 1008 hPa Calm   3.2 km/h 94 % 0 mm 0 W/m2
03:56 12.7 °C 11.8 °C 1007.7 hPa Calm   3.2 km/h 94 % 0 mm 0 W/m2
04:01 12.7 °C 11.8 °C 1007.7 hPa SE 1.6 km/h 6.4 km/h 94 % 0 mm 0 W/m2
04:06 12.7 °C 11.8 °C 1007.7 hPa SE 1.6 km/h 8 km/h 94 % 0 mm 0 W/m2
04:11 12.7 °C 11.8 °C 1007.3 hPa SE 1.6 km/h 8 km/h 94 % 0 mm 0 W/m2
04:16 12.7 °C 11.8 °C 1007.3 hPa SE 3.2 km/h 9.7 km/h 94 % 0 mm 0 W/m2
04:21 12.6 °C 11.7 °C 1007.3 hPa SE 1.6 km/h 9.7 km/h 94 % 0 mm 0 W/m2
04:26 12.6 °C 11.7 °C 1007.3 hPa SE 1.6 km/h 6.4 km/h 94 % 0 mm 0 W/m2
04:31 12.6 °C 11.7 °C 1007 hPa SE 1.6 km/h 6.4 km/h 94 % 0 mm 0 W/m2
04:36 12.6 °C 11.7 °C 1007 hPa SE 1.6 km/h 6.4 km/h 94 % 0 mm 0 W/m2
04:41 12.5 °C 11.6 °C 1007 hPa Calm   3.2 km/h 94 % 0 mm 0 W/m2
04:46 12.4 °C 11.4 °C 1007 hPa Calm   3.2 km/h 94 % 0 mm 0 W/m2
04:51 12.3 °C 11.4 °C 1007 hPa Calm     94 % 0 mm 0 W/m2
04:56 12.2 °C 11.3 °C 1007 hPa Calm     94 % 0 mm 0 W/m2
05:01 12.1 °C 11.2 °C 1007 hPa Calm     94 % 0 mm 0 W/m2
05:06 12.1 °C 11.2 °C 1007 hPa Calm     94 % 0 mm 5 W/m2
05:11 12.1 °C 11.3 °C 1006.7 hPa Calm     95 % 0 mm 7 W/m2
05:16 12.1 °C 11.3 °C 1006.7 hPa Calm     95 % 0 mm 9 W/m2
05:21 12.2 °C 11.4 °C 1006.7 hPa Calm   1.6 km/h 95 % 0 mm 14 W/m2
05:26 12.2 °C 11.4 °C 1006.7 hPa Calm   1.6 km/h 95 % 0 mm 18 W/m2
05:31 12.3 °C 11.5 °C 1006.7 hPa Calm   1.6 km/h 95 % 0 mm 18 W/m2
05:36 12.4 °C 11.8 °C 1006.7 hPa Calm   1.6 km/h 96 % 0 mm 19 W/m2
05:41 12.4 °C 11.6 °C 1006.7 hPa Calm   3.2 km/h 95 % 0 mm 26 W/m2
05:46 12.5 °C 11.7 °C 1006.3 hPa Calm   3.2 km/h 95 % 0 mm 33 W/m2
05:51 12.6 °C 12 °C 1006.3 hPa Calm   6.4 km/h 96 % 0 mm 37 W/m2
05:56 12.6 °C 11.8 °C 1006.3 hPa SE 1.6 km/h 8 km/h 95 % 0 mm 33 W/m2
06:01 12.6 °C 11.8 °C 1006.3 hPa Calm   8 km/h 95 % 0 mm 32 W/m2
06:06 12.6 °C 11.8 °C 1006.3 hPa Calm   6.4 km/h 95 % 0 mm 30 W/m2
06:11 12.6 °C 11.8 °C 1006 hPa Calm   6.4 km/h 95 % 0 mm 28 W/m2
06:16 12.7 °C 12.1 °C 1006 hPa Calm   6.4 km/h 96 % 0 mm 30 W/m2
06:21 12.8 °C 12.2 °C 1006 hPa Calm   1.6 km/h 96 % 0 mm 35 W/m2
06:23 12.8 °C 12.2 °C 1006 hPa Calm   3.2 km/h 96 % 0 mm 37 W/m2
06:28 12.9 °C 12.3 °C 1006 hPa Calm   6.4 km/h 96 % 0 mm 49 W/m2
06:33 12.9 °C 12.3 °C 1006 hPa SSW 1.6 km/h 8 km/h 96 % 0 mm 49 W/m2
06:38 13 °C 12.4 °C 1006 hPa SSW 1.6 km/h 8 km/h 96 % 0 mm 47 W/m2
06:43 13.1 °C 12.5 °C 1006 hPa Calm   1.6 km/h 96 % 0 mm 39 W/m2
06:48 13.2 °C 12.6 °C 1005.6 hPa Calm   1.6 km/h 96 % 0 mm 37 W/m2
06:53 13.2 °C 12.4 °C 1005.6 hPa Calm   1.6 km/h 95 % 0 mm 44 W/m2
06:58 13.3 °C 12.5 °C 1005.6 hPa Calm   6.4 km/h 95 % 0 mm 51 W/m2
07:03 13.4 °C 12.8 °C 1005.6 hPa Calm   6.4 km/h 96 % 0 mm 51 W/m2
07:08 13.5 °C 12.9 °C 1005.6 hPa South 1.6 km/h 8 km/h 96 % 0 mm 37 W/m2
07:13 13.6 °C 12.8 °C 1005.6 hPa South 3.2 km/h 8 km/h 95 % 0 mm 33 W/m2
07:18 13.7 °C 12.9 °C 1005.3 hPa SSE 4.8 km/h 11.3 km/h 95 % 0 mm 40 W/m2
07:23 13.8 °C 13 °C 1005.3 hPa SE 4.8 km/h 11.3 km/h 95 % 0 mm 46 W/m2
07:28 13.8 °C 13 °C 1005.3 hPa SSE 4.8 km/h 9.7 km/h 95 % 0 mm 42 W/m2
07:33 13.8 °C 13 °C 1005.3 hPa SE 4.8 km/h 9.7 km/h 95 % 0 mm 42 W/m2
07:38 13.9 °C 13.1 °C 1005 hPa SE 4.8 km/h 11.3 km/h 95 % 0 mm 42 W/m2
07:43 13.9 °C 13.1 °C 1005 hPa SE 6.4 km/h 11.3 km/h 95 % 0 mm 39 W/m2
07:48 13.9 °C 13.1 °C 1005 hPa SE 6.4 km/h 11.3 km/h 95 % 0 mm 42 W/m2
07:53 13.9 °C 13.1 °C 1005 hPa SE 6.4 km/h 11.3 km/h 95 % 0 mm 58 W/m2
07:58 14.1 °C 13.3 °C 1005 hPa SE 6.4 km/h 12.9 km/h 95 % 0 mm 49 W/m2
08:03 14.2 °C 13.4 °C 1005 hPa SSE 8 km/h 12.9 km/h 95 % 0 mm 49 W/m2
08:08 14.2 °C 13.4 °C 1004.6 hPa SSE 8 km/h 12.9 km/h 95 % 0 mm 56 W/m2
08:14 14.3 °C 13.5 °C 1004.6 hPa SSE 8 km/h 12.9 km/h 95 % 0 mm 67 W/m2
08:19 14.3 °C 13.5 °C 1004.6 hPa SE 9.7 km/h 16.1 km/h 95 % 0 mm 79 W/m2
08:24 14.4 °C 13.6 °C 1004.6 hPa SE 11.3 km/h 16.1 km/h 95 % 0 mm 93 W/m2
08:29 14.4 °C 13.6 °C 1004.6 hPa SE 9.7 km/h 16.1 km/h 95 % 0.25 mm 102 W/m2
08:34 14.4 °C 13.6 °C 1004.3 hPa SE 9.7 km/h 14.5 km/h 95 % 0.25 mm 116 W/m2
08:39 14.5 °C 13.7 °C 1004.3 hPa SE 8 km/h 14.5 km/h 95 % 0.25 mm 125 W/m2
08:44 14.6 °C 13.8 °C 1004.3 hPa SE 9.7 km/h 14.5 km/h 95 % 0.25 mm 146 W/m2
08:49 14.8 °C 14 °C 1003.9 hPa SSE 8 km/h 16.1 km/h 95 % 0.25 mm 195 W/m2
08:54 14.9 °C 14.1 °C 1003.9 hPa SSE 8 km/h 16.1 km/h 95 % 0.25 mm 158 W/m2
08:59 15.1 °C 14.3 °C 1003.9 hPa SSE 9.7 km/h 16.1 km/h 95 % 0.25 mm 127 W/m2
09:04 15.2 °C 14.4 °C 1003.9 hPa SSE 12.9 km/h 19.3 km/h 95 % 0.25 mm 132 W/m2
09:09 15.3 °C 14.5 °C 1003.9 hPa SSE 11.3 km/h 19.3 km/h 95 % 0.25 mm 137 W/m2
09:14 15.3 °C 14.5 °C 1003.6 hPa South 11.3 km/h 24.1 km/h 95 % 0.25 mm 148 W/m2
09:19 15.4 °C 14.6 °C 1003.6 hPa SSE 11.3 km/h 24.1 km/h 95 % 0.25 mm 165 W/m2
09:24 15.6 °C 14.6 °C 1003.6 hPa SSE 11.3 km/h 25.7 km/h 94 % 0.25 mm 120 W/m2
09:29 15.6 °C 14.6 °C 1003.6 hPa South 12.9 km/h 25.7 km/h 94 % 0 mm 104 W/m2
09:34 15.7 °C 14.7 °C 1003.6 hPa SSE 11.3 km/h 24.1 km/h 94 % 0 mm 102 W/m2
09:39 15.7 °C 14.6 °C 1003.3 hPa SSE 12.9 km/h 25.7 km/h 93 % 0 mm 105 W/m2
09:44 15.7 °C 14.6 °C 1003.6 hPa SSE 14.5 km/h 30.6 km/h 93 % 0.25 mm 97 W/m2
09:49 15.7 °C 14.6 °C 1003.3 hPa South 14.5 km/h 30.6 km/h 93 % 0.25 mm 90 W/m2
09:54 15.7 °C 14.6 °C 1003.3 hPa South 14.5 km/h 25.7 km/h 93 % 0.51 mm 90 W/m2
09:59 15.7 °C 14.6 °C 1003.3 hPa South 12.9 km/h 25.7 km/h 93 % 0.51 mm 105 W/m2
10:04 15.7 °C 14.7 °C 1003.3 hPa South 11.3 km/h 22.5 km/h 94 % 0.51 mm 77 W/m2
10:09 15.7 °C 14.7 °C 1003.3 hPa South 11.3 km/h 22.5 km/h 94 % 0.51 mm 97 W/m2
10:15 15.7 °C 14.7 °C 1002.9 hPa South 9.7 km/h 22.5 km/h 94 % 0.76 mm 118 W/m2
10:20 15.8 °C 14.8 °C 1002.9 hPa South 8 km/h 16.1 km/h 94 % 1.02 mm 121 W/m2
10:25 15.8 °C 14.8 °C 1002.9 hPa South 9.7 km/h 16.1 km/h 94 % 1.02 mm 93 W/m2
10:30 15.8 °C 14.8 °C 1002.9 hPa SSE 11.3 km/h 25.7 km/h 94 % 1.27 mm 74 W/m2
10:35 15.7 °C 14.9 °C 1002.6 hPa South 11.3 km/h 25.7 km/h 95 % 1.52 mm 88 W/m2
10:40 15.7 °C 14.9 °C 1002.6 hPa South 11.3 km/h 29 km/h 95 % 1.52 mm 104 W/m2
10:45 15.7 °C 14.9 °C 1002.6 hPa South 11.3 km/h 29 km/h 95 % 1.52 mm 67 W/m2
10:50 15.7 °C 14.9 °C 1002.6 hPa South 9.7 km/h 20.9 km/h 95 % 1.52 mm 58 W/m2
10:55 15.7 °C 14.9 °C 1002.6 hPa South 11.3 km/h 20.9 km/h 95 % 1.52 mm 98 W/m2
11:00 15.7 °C 14.9 °C 1002.3 hPa South 11.3 km/h 20.9 km/h 95 % 1.52 mm 120 W/m2
11:05 15.7 °C 14.9 °C 1002.3 hPa South 9.7 km/h 19.3 km/h 95 % 1.52 mm 142 W/m2
11:10 15.8 °C 15 °C 1002.3 hPa South 9.7 km/h 19.3 km/h 95 % 1.52 mm 125 W/m2
11:15 15.8 °C 15 °C 1002.3 hPa SSE 11.3 km/h 20.9 km/h 95 % 1.52 mm 125 W/m2
11:20 15.8 °C 15 °C 1001.9 hPa SSE 12.9 km/h 24.1 km/h 95 % 1.27 mm 158 W/m2
11:25 15.9 °C 15.1 °C 1001.9 hPa SSE 11.3 km/h 24.1 km/h 95 % 1.52 mm 153 W/m2
11:30 16 °C 15.4 °C 1001.9 hPa SSE 9.7 km/h 22.5 km/h 96 % 1.27 mm 144 W/m2
11:35 16.1 °C 15.3 °C 1001.9 hPa SSE 9.7 km/h 17.7 km/h 95 % 1.02 mm 162 W/m2
11:40 16.2 °C 15.6 °C 1001.9 hPa SSE 9.7 km/h 17.7 km/h 96 % 0.76 mm 81 W/m2
11:45 16.2 °C 15.6 °C 1001.9 hPa SSE 9.7 km/h 16.1 km/h 96 % 0.76 mm 72 W/m2
11:50 16.2 °C 15.6 °C 1001.9 hPa South 11.3 km/h 20.9 km/h 96 % 0.76 mm 155 W/m2
11:55 16.3 °C 15.7 °C 1001.6 hPa SSE 9.7 km/h 20.9 km/h 96 % 0.76 mm 158 W/m2
12:00 16.4 °C 15.8 °C 1001.6 hPa SSE 9.7 km/h 16.1 km/h 96 % 0.51 mm 188 W/m2
12:05 16.6 °C 15.9 °C 1001.6 hPa SSE 9.7 km/h 16.1 km/h 96 % 0.51 mm 214 W/m2
12:10 16.7 °C 16.1 °C 1001.6 hPa SSE 9.7 km/h 17.7 km/h 96 % 0.51 mm 271 W/m2
12:15 16.8 °C 16.2 °C 1001.6 hPa South 9.7 km/h 17.7 km/h 96 % 0.51 mm 311 W/m2
12:20 17 °C 16.3 °C 1001.6 hPa South 9.7 km/h 16.1 km/h 96 % 0.51 mm 272 W/m2
12:25 17.1 °C 16.3 °C 1001.6 hPa SSW 11.3 km/h 22.5 km/h 95 % 0.25 mm 306 W/m2
12:30 17.2 °C 16.4 °C 1001.2 hPa South 11.3 km/h 22.5 km/h 95 % 0.25 mm 302 W/m2
12:35 17.4 °C 16.8 °C 1001.2 hPa South 9.7 km/h 19.3 km/h 96 % 0.25 mm 373 W/m2
12:40 17.5 °C 16.7 °C 1001.2 hPa South 9.7 km/h 19.3 km/h 95 % 0.25 mm 420 W/m2
12:41 17.6 °C 16.8 °C 1001.2 hPa South 11.3 km/h 24.1 km/h 95 % 0.25 mm 420 W/m2
12:46 17.7 °C 16.9 °C 1001.2 hPa South 14.5 km/h 24.1 km/h 95 % 0.25 mm 265 W/m2
12:51 17.8 °C 17 °C 1001.2 hPa South 16.1 km/h 25.7 km/h 95 % 0 mm 281 W/m2
12:56 17.7 °C 16.7 °C 1001.2 hPa SSW 16.1 km/h 35.4 km/h 94 % 0 mm 436 W/m2
13:01 17.8 °C 16.8 °C 1000.9 hPa SSW 17.7 km/h 35.4 km/h 94 % 0 mm 357 W/m2
13:06 17.9 °C 16.9 °C 1000.9 hPa SSW 17.7 km/h 38.6 km/h 94 % 0 mm 301 W/m2
13:11 18.1 °C 16.9 °C 1000.9 hPa SSW 17.7 km/h 38.6 km/h 93 % 0 mm 350 W/m2
13:16 18.1 °C 16.8 °C 1000.9 hPa South 17.7 km/h 32.2 km/h 92 % 0 mm 264 W/m2
13:21 18.3 °C 16.8 °C 1000.9 hPa South 19.3 km/h 33.8 km/h 91 % 0 mm 278 W/m2
13:26 18.3 °C 16.8 °C 1000.9 hPa South 17.7 km/h 35.4 km/h 91 % 0 mm 334 W/m2
13:31 18.4 °C 16.9 °C 1000.9 hPa SSW 17.7 km/h 35.4 km/h 91 % 0 mm 425 W/m2
13:36 18.6 °C 16.9 °C 1000.6 hPa SSW 17.7 km/h 32.2 km/h 90 % 0 mm 316 W/m2
13:41 18.8 °C 17.1 °C 1000.6 hPa SSW 17.7 km/h 37 km/h 90 % 0 mm 374 W/m2
13:46 19.1 °C 17.4 °C 1000.6 hPa SSW 17.7 km/h 37 km/h 90 % 0 mm 454 W/m2
13:51 19.3 °C 17.4 °C 1000.6 hPa SSW 17.7 km/h 35.4 km/h 89 % 0 mm 471 W/m2
13:56 19.6 °C 17.6 °C 1000.2 hPa SSW 16.1 km/h 35.4 km/h 88 % 0 mm 557 W/m2
14:01 19.8 °C 17.6 °C 1000.2 hPa South 17.7 km/h 35.4 km/h 87 % 0 mm 557 W/m2
14:06 20.2 °C 17.9 °C 1000.2 hPa South 17.7 km/h 35.4 km/h 87 % 0 mm 962 W/m2
14:11 20.5 °C 17.9 °C 1000.2 hPa SSW 17.7 km/h 37 km/h 85 % 0 mm 916 W/m2
14:16 20.6 °C 18 °C 1000.2 hPa SSW 20.9 km/h 37 km/h 85 % 0 mm 977 W/m2
14:21 20.8 °C 18.4 °C 1000.2 hPa SSW 17.7 km/h 35.4 km/h 86 % 0 mm 1002 W/m2
14:26 21.1 °C 18.3 °C 1000.2 hPa SSW 16.1 km/h 37 km/h 84 % 0 mm 942 W/m2
14:31 21.2 °C 18.4 °C 999.9 hPa SSW 17.7 km/h 37 km/h 84 % 0 mm 951 W/m2
14:36 21.3 °C 18.3 °C 999.9 hPa SSW 16.1 km/h 30.6 km/h 83 % 0 mm 990 W/m2
14:41 21.4 °C 18.4 °C 999.5 hPa SSW 16.1 km/h 32.2 km/h 83 % 0 mm 976 W/m2
14:46 21.7 °C 18.3 °C 999.5 hPa SSW 19.3 km/h 32.2 km/h 81 % 0 mm 911 W/m2
14:49 21.8 °C 18.4 °C 999.5 hPa SW 17.7 km/h 32.2 km/h 81 % 0 mm 974 W/m2
14:54 21.9 °C 18.1 °C 999.5 hPa SW 20.9 km/h 35.4 km/h 79 % 0 mm 923 W/m2
15:00 21.7 °C 18.1 °C 999.2 hPa SW 20.9 km/h 37 km/h 80 % 0 mm 364 W/m2
15:05 21.8 °C 18.4 °C 999.2 hPa SSW 17.7 km/h 37 km/h 81 % 0 mm 891 W/m2
15:10 21.9 °C 18.1 °C 999.2 hPa SW 19.3 km/h 40.2 km/h 79 % 0 mm 325 W/m2
15:15 21.9 °C 17.9 °C 999.5 hPa SW 19.3 km/h 40.2 km/h 78 % 0 mm 207 W/m2
15:20 21.7 °C 17.9 °C 999.2 hPa SW 17.7 km/h 33.8 km/h 79 % 0 mm 253 W/m2
15:25 21.6 °C 18.2 °C 999.2 hPa SW 16.1 km/h 25.7 km/h 81 % 0 mm 285 W/m2
15:30 21.4 °C 17.8 °C 999.2 hPa SSW 14.5 km/h 25.7 km/h 80 % 0 mm 142 W/m2
15:35 21.2 °C 17.6 °C 998.9 hPa SSW 16.1 km/h 25.7 km/h 80 % 0 mm 111 W/m2
15:40 21.1 °C 17.7 °C 999.2 hPa SSW 19.3 km/h 35.4 km/h 81 % 0 mm 139 W/m2
15:45 21.1 °C 18.1 °C 998.9 hPa SW 19.3 km/h 35.4 km/h 83 % 0 mm 218 W/m2
15:50 21.2 °C 18.6 °C 998.9 hPa SW 17.7 km/h 35.4 km/h 85 % 0 mm 881 W/m2
15:55 21.5 °C 18.5 °C 998.9 hPa SW 17.7 km/h 29 km/h 83 % 0 mm 875 W/m2
16:00 21.8 °C 18.4 °C 998.9 hPa SW 17.7 km/h 29 km/h 81 % 0 mm 163 W/m2
16:05 21.8 °C 18.2 °C 998.9 hPa SW 16.1 km/h 25.7 km/h 80 % 0 mm 107 W/m2
16:10 21.6 °C 18 °C 999.2 hPa WSW 17.7 km/h 35.4 km/h 80 % 0 mm 823 W/m2
16:15 21.2 °C 17.8 °C 999.2 hPa West 20.9 km/h 37 km/h 81 % 0 mm 744 W/m2
16:20 21.1 °C 17.3 °C 999.5 hPa West 22.5 km/h 37 km/h 79 % 0 mm 800 W/m2
16:25 21.1 °C 16.9 °C 999.2 hPa West 22.5 km/h 37 km/h 77 % 0 mm 742 W/m2
16:30 20.9 °C 16.3 °C 999.2 hPa West 24.1 km/h 45.1 km/h 75 % 0 mm 710 W/m2
16:35 20.8 °C 16.2 °C 999.5 hPa West 24.1 km/h 45.1 km/h 75 % 0 mm 719 W/m2
16:40 20.7 °C 15.7 °C 999.5 hPa WNW 22.5 km/h 49.9 km/h 73 % 0 mm 439 W/m2
16:45 20.6 °C 15.4 °C 999.5 hPa WNW 24.1 km/h 49.9 km/h 72 % 0 mm 415 W/m2
16:50 20.3 °C 14.9 °C 999.5 hPa West 22.5 km/h 41.8 km/h 71 % 0 mm 536 W/m2
16:55 20 °C 14.8 °C 999.5 hPa West 20.9 km/h 41.8 km/h 72 % 0 mm 682 W/m2
17:00 20.2 °C 15 °C 999.9 hPa West 19.3 km/h 37 km/h 72 % 0 mm 624 W/m2
17:05 20.4 °C 14.9 °C 999.5 hPa WNW 17.7 km/h 38.6 km/h 71 % 0 mm 578 W/m2
17:10 20.2 °C 14.1 °C 999.5 hPa WNW 20.9 km/h 40.2 km/h 68 % 0 mm 272 W/m2
17:15 19.9 °C 14.3 °C 999.9 hPa WNW 19.3 km/h 40.2 km/h 70 % 0 mm 343 W/m2
17:20 19.8 °C 13.7 °C 999.9 hPa WNW 17.7 km/h 37 km/h 68 % 0 mm 225 W/m2
17:25 19.5 °C 13.7 °C 999.9 hPa WNW 17.7 km/h 37 km/h 69 % 0 mm 288 W/m2
17:31 19.6 °C 13.8 °C 999.9 hPa WNW 16.1 km/h 38.6 km/h 69 % 0 mm 622 W/m2
17:36 19.5 °C 13.4 °C 999.9 hPa West 19.3 km/h 38.6 km/h 68 % 0 mm 464 W/m2
17:41 19.6 °C 13.8 °C 999.9 hPa West 20.9 km/h 37 km/h 69 % 0 mm 396 W/m2
17:46 19.6 °C 13.8 °C 999.9 hPa West 17.7 km/h 32.2 km/h 69 % 0 mm 482 W/m2
17:51 19.6 °C 13.8 °C 999.9 hPa West 19.3 km/h 35.4 km/h 69 % 0 mm 471 W/m2
17:56 19.7 °C 14.1 °C 999.9 hPa West 19.3 km/h 35.4 km/h 70 % 0 mm 434 W/m2
18:01 19.7 °C 13.8 °C 999.9 hPa West 19.3 km/h 32.2 km/h 69 % 0 mm 348 W/m2
18:06 19.5 °C 13.7 °C 999.9 hPa West 19.3 km/h 32.2 km/h 69 % 0 mm 113 W/m2
18:11 19.4 °C 14 °C 999.9 hPa West 16.1 km/h 32.2 km/h 71 % 0 mm 429 W/m2
18:16 19.6 °C 14 °C 1000.2 hPa West 14.5 km/h 24.1 km/h 70 % 0 mm 323 W/m2
18:21 19.7 °C 14.1 °C 1000.2 hPa West 12.9 km/h 29 km/h 70 % 0 mm 204 W/m2
18:26 19.6 °C 13.8 °C 1000.2 hPa West 14.5 km/h 29 km/h 69 % 0 mm 218 W/m2
18:31 19.4 °C 13.8 °C 999.9 hPa West 14.5 km/h 29 km/h 70 % 0 mm 338 W/m2
18:36 19.4 °C 14 °C 1000.2 hPa West 12.9 km/h 25.7 km/h 71 % 0 mm 236 W/m2
18:41 19.4 °C 13.8 °C 999.9 hPa West 12.9 km/h 25.7 km/h 70 % 0 mm 373 W/m2
18:46 19.4 °C 13.8 °C 1000.2 hPa West 14.5 km/h 25.7 km/h 70 % 0 mm 327 W/m2
18:51 19.4 °C 13.6 °C 999.9 hPa West 14.5 km/h 24.1 km/h 69 % 0 mm 202 W/m2
18:56 19.3 °C 13.7 °C 999.9 hPa West 14.5 km/h 20.9 km/h 70 % 0 mm 213 W/m2
19:01 19.2 °C 13.6 °C 999.9 hPa West 11.3 km/h 20.9 km/h 70 % 0 mm 181 W/m2
19:06 19.1 °C 13.3 °C 999.9 hPa WNW 11.3 km/h 20.9 km/h 69 % 0 mm 163 W/m2
19:08 18.9 °C 13.1 °C 999.9 hPa WNW 12.9 km/h 30.6 km/h 69 % 0 mm 158 W/m2
19:13 18.8 °C 13 °C 999.9 hPa WNW 14.5 km/h 30.6 km/h 69 % 0 mm 125 W/m2
19:18 18.7 °C 12.7 °C 999.9 hPa WNW 11.3 km/h 22.5 km/h 68 % 0 mm 83 W/m2
19:23 18.6 °C 12.6 °C 1000.2 hPa WNW 11.3 km/h 19.3 km/h 68 % 0 mm 65 W/m2
19:28 18.4 °C 12.4 °C 1000.2 hPa WNW 11.3 km/h 20.9 km/h 68 % 0 mm 109 W/m2
19:33 18.4 °C 12.4 °C 1000.2 hPa WNW 11.3 km/h 20.9 km/h 68 % 0 mm 107 W/m2
19:38 18.3 °C 11.8 °C 1000.2 hPa WNW 11.3 km/h 20.9 km/h 66 % 0 mm 144 W/m2
19:44 18.5 °C 12 °C 999.9 hPa WNW 12.9 km/h 22.5 km/h 66 % 0 mm 213 W/m2
19:49 18.7 °C 12 °C 1000.2 hPa West 11.3 km/h 22.5 km/h 65 % 0 mm 141 W/m2
19:54 18.7 °C 11.5 °C 1000.2 hPa West 12.9 km/h 22.5 km/h 63 % 0 mm 107 W/m2
19:59 18.6 °C 11.4 °C 1000.2 hPa WNW 14.5 km/h 24.1 km/h 63 % 0 mm 77 W/m2
20:04 18.4 °C 11.4 °C 1000.2 hPa WNW 12.9 km/h 24.1 km/h 64 % 0 mm 30 W/m2
20:09 18.1 °C 11.4 °C 1000.2 hPa WNW 11.3 km/h 22.5 km/h 65 % 0 mm 23 W/m2
20:14 17.8 °C 11.3 °C 1000.2 hPa West 9.7 km/h 22.5 km/h 66 % 0 mm 23 W/m2
20:19 17.6 °C 11.6 °C 1000.2 hPa West 8 km/h 16.1 km/h 68 % 0 mm 25 W/m2
20:24 17.4 °C 11.7 °C 1000.2 hPa West 8 km/h 16.1 km/h 69 % 0 mm 19 W/m2
20:29 17.2 °C 11.7 °C 1000.2 hPa West 6.4 km/h 16.1 km/h 70 % 0 mm 18 W/m2
20:34 17 °C 11.7 °C 1000.6 hPa West 6.4 km/h 14.5 km/h 71 % 0 mm 16 W/m2
20:39 16.8 °C 11.5 °C 1000.6 hPa West 8 km/h 14.5 km/h 71 % 0 mm 14 W/m2
20:44 16.6 °C 11.6 °C 1000.6 hPa West 8 km/h 17.7 km/h 72 % 0 mm 12 W/m2
20:49 16.5 °C 11.4 °C 1000.6 hPa West 8 km/h 17.7 km/h 72 % 0 mm 11 W/m2
20:54 16.4 °C 11.6 °C 1000.6 hPa West 6.4 km/h 11.3 km/h 73 % 0 mm 9 W/m2
20:59 16.2 °C 11.6 °C 1000.6 hPa WSW 6.4 km/h 12.9 km/h 74 % 0 mm 5 W/m2
21:04 16.1 °C 11.7 °C 1000.6 hPa WSW 9.7 km/h 14.5 km/h 75 % 0 mm 5 W/m2
21:09 16 °C 11.6 °C 1000.6 hPa WSW 8 km/h 14.5 km/h 75 % 0 mm 0 W/m2
21:14 16 °C 11.6 °C 1000.9 hPa WSW 6.4 km/h 14.5 km/h 75 % 0 mm 0 W/m2
21:19 16 °C 11.6 °C 1000.9 hPa SW 8 km/h 17.7 km/h 75 % 0 mm 0 W/m2
21:24 16 °C 11.6 °C 1000.9 hPa WSW 9.7 km/h 19.3 km/h 75 % 0 mm 0 W/m2
21:29 16 °C 11.4 °C 1000.9 hPa WSW 12.9 km/h 19.3 km/h 74 % 0 mm 0 W/m2
21:35 15.9 °C 11.3 °C 1001.2 hPa WSW 12.9 km/h 19.3 km/h 74 % 0 mm 0 W/m2
21:40 15.9 °C 11.3 °C 1001.2 hPa WSW 9.7 km/h 17.7 km/h 74 % 0 mm 0 W/m2
21:45 15.8 °C 11.2 °C 1001.2 hPa WSW 8 km/h 17.7 km/h 74 % 0 mm 0 W/m2
21:50 15.8 °C 11.2 °C 1001.2 hPa WSW 9.7 km/h 17.7 km/h 74 % 0 mm 0 W/m2
21:55 15.7 °C 11.1 °C 1001.2 hPa WSW 9.7 km/h 19.3 km/h 74 % 0 mm 0 W/m2
22:00 15.7 °C 11.1 °C 1001.2 hPa WSW 12.9 km/h 29 km/h 74 % 0 mm 0 W/m2
22:04 15.7 °C 11.1 °C 1001.2 hPa WSW 16.1 km/h 30.6 km/h 74 % 0 mm 0 W/m2
22:09 15.6 °C 11 °C 1001.6 hPa WSW 14.5 km/h 30.6 km/h 74 % 0 mm 0 W/m2
22:15 15.5 °C 11.1 °C 1001.6 hPa WSW 11.3 km/h 22.5 km/h 75 % 0 mm 0 W/m2
22:20 15.4 °C 11 °C 1001.6 hPa WSW 12.9 km/h 24.1 km/h 75 % 0 mm 0 W/m2
22:25 15.4 °C 11.2 °C 1001.6 hPa WSW 12.9 km/h 24.1 km/h 76 % 0 mm 0 W/m2
22:30 15.3 °C 11.1 °C 1001.6 hPa WSW 11.3 km/h 20.9 km/h 76 % 0 mm 0 W/m2
22:35 15.3 °C 11.1 °C 1001.6 hPa WSW 11.3 km/h 20.9 km/h 76 % 0 mm 0 W/m2
22:40 15.2 °C 11.2 °C 1001.6 hPa SW 11.3 km/h 19.3 km/h 77 % 0 mm 0 W/m2
22:45 15.2 °C 11.2 °C 1001.9 hPa WSW 12.9 km/h 32.2 km/h 77 % 0 mm 0 W/m2
22:50 15.2 °C 11.4 °C 1001.9 hPa WSW 14.5 km/h 35.4 km/h 78 % 0 mm 0 W/m2
22:55 15.3 °C 11.5 °C 1001.9 hPa WSW 17.7 km/h 35.4 km/h 78 % 0 mm 0 W/m2
23:00 15.3 °C 11.5 °C 1002.3 hPa WSW 17.7 km/h 33.8 km/h 78 % 0 mm 0 W/m2
23:05 15 °C 10.2 °C 1002.6 hPa West 25.7 km/h 49.9 km/h 73 % 0 mm 0 W/m2
23:10 14.2 °C 10.2 °C 1002.6 hPa West 29 km/h 49.9 km/h 77 % 0 mm 0 W/m2
23:15 13.5 °C 10.3 °C 1002.6 hPa West 20.9 km/h 45.1 km/h 81 % 0 mm 0 W/m2
23:20 13.1 °C 10.3 °C 1002.6 hPa West 14.5 km/h 33.8 km/h 83 % 0 mm 0 W/m2
23:25 12.9 °C 10.3 °C 1002.3 hPa West 9.7 km/h 22.5 km/h 84 % 0 mm 0 W/m2
23:30 12.8 °C 10.3 °C 1002.3 hPa WSW 8 km/h 16.1 km/h 85 % 0 mm 0 W/m2
23:35 12.7 °C 10.4 °C 1002.3 hPa West 6.4 km/h 16.1 km/h 86 % 0 mm 0 W/m2
23:40 12.6 °C 10.5 °C 1002.3 hPa West 4.8 km/h 12.9 km/h 87 % 0 mm 0 W/m2
23:45 12.5 °C 10.6 °C 1002.3 hPa West 4.8 km/h 12.9 km/h 88 % 0 mm 0 W/m2
23:50 12.4 °C 10.4 °C 1002.3 hPa WSW 6.4 km/h 14.5 km/h 88 % 0 mm 0 W/m2
23:55 12.4 °C 10.4 °C 1002.3 hPa WSW 9.7 km/h 17.7 km/h 88 % 0 mm 0 W/m2
Delerius-Weather
Compliments of Weather Underground - 2.25 mb

Data updates at regular intervals.